#timestamp,LO_Frequency,Hit,StdDev 
1587326415.8,286046996.8,N
1587326435.6,286046996.7,N
1587326455.4,286046999.2,N
1587326475.3,286046999.6,N
1587326495.1,286046997.5,N
1587326515.9,286046995.3,N
1587326535.7,286046995.4,N
1587326555.5,286046995.3,N
1587326575.4,286046995.1,N
1587326595.2,286046995.3,N
1587326615.0,286046996.8,N
1587326616.0,286046996.8,N
1587326635.8,286046998.7,N
1587326655.6,286047000.7,N
1587326675.5,286047000.7,N
1587326695.3,286047001.2,N
1587326715.1,286047000.7,N
1587326735.9,286047000.6,N
1587326755.7,286046999.4,N
1587326775.6,286046998.4,N
1587326795.4,286046999.4,N
1587326815.2,286046996.9,N
1587326835.1,286046997.0,N
1587326836.0,286046997.0,N
1587326855.8,286046996.8,N
1587326875.7,286046997.2,N
1587326895.5,286046996.5,N
1587326915.3,286046998.7,N
1587326935.2,286046996.4,N
1587326955.0,286046995.8,N
1587326955.9,286046995.8,N
1587326975.7,286046995.3,N
1587326995.6,286046996.9,N
1587327015.4,286046998.0,N
1587327035.3,286046998.9,N
1587327055.1,286047001.0,N
1587327075.8,286046998.8,N
1587327095.7,286046997.1,N
1587327115.5,286046999.0,N
1587327135.4,286047000.3,N
1587327155.2,286046994.9,N
1587327175.0,286046997.8,N
1587327175.9,286046997.8,N
1587327195.8,286046998.7,N
1587327215.6,286047000.0,N
1587327235.4,286046997.2,N
1587327255.3,286046999.1,N
1587327275.1,286047000.8,N
1587327295.9,286046998.1,N
1587327315.7,286046998.6,N
1587327335.5,286047000.8,N
1587327355.4,286046999.5,N
1587327375.2,286046998.6,N
1587327395.1,286046998.1,N
1587327396.0,286046998.1,N
1587327415.8,286046999.0,N
1587327435.6,286047001.0,N
1587327455.5,286047002.3,N
1587327475.3,286047004.3,N
1587327495.2,286047003.1,N
1587327515.9,286047004.1,N
1587327535.8,286047003.7,N
1587327555.6,286047000.4,N
1587327575.4,286047000.2,N
1587327595.3,286047003.4,N
1587327615.1,286047002.0,N
1587327635.9,286047001.8,N
1587327655.7,286046999.9,N
1587327675.5,286046998.3,N
1587327695.4,286046996.5,N
1587327715.2,286047001.0,N
1587327735.0,286046999.4,N
1587327736.0,286046999.4,N
1587327755.8,286046999.4,N
1587327775.6,286046997.8,N
1587327795.5,286046997.2,N
1587327815.3,286046998.7,N
1587327835.1,286046998.6,N
1587327855.9,286047001.1,N
1587327875.7,286046998.6,N
1587327895.6,286046998.4,N
1587327915.4,286046999.3,N
1587327935.2,286046998.1,N
1587327955.1,286046999.5,N
1587327956.0,286046999.5,N
1587327975.8,286046999.3,N
1587327995.7,286046999.6,N
1587328015.5,286046996.8,N
1587328035.3,286046998.7,N
1587328055.2,286046998.6,N
1587328075.0,286046998.2,N
1587328075.9,286046998.2,N
1587328095.8,286046998.5,N
1587328115.6,286047001.2,N
1587328135.4,286046998.2,N
1587328155.3,286047001.2,N
1587328175.1,286046998.7,N
1587328195.9,286047001.3,N
1587328215.7,286047000.1,N
1587328235.5,286046999.8,N
1587328255.4,286047001.5,N
1587328275.2,286047005.8,Y
1587328295.1,286047002.9,P
1587328296.0,286047002.9,N
1587328315.8,286047003.1,N
1587328335.7,286046999.8,N
1587328355.5,286046999.8,N
1587328375.3,286047000.1,N
1587328395.2,286047002.8,N
1587328415.9,286047000.0,N
1587328435.7,286047000.0,N
1587328455.6,286047001.8,N
1587328475.4,286047001.5,N
1587328495.3,286047002.2,N
1587328515.1,286047000.9,N
1587328516.0,286047000.9,N
1587328535.8,286046998.1,N
1587328555.7,286046998.1,N
1587328575.5,286047001.0,N
1587328595.3,286047001.2,N
1587328615.2,286046999.5,N
1587328635.0,286046998.7,N
1587328635.9,286046998.7,N
1587328655.8,286047000.4,N
1587328675.6,286046998.4,N
1587328695.4,286046998.4,N
1587328715.3,286047000.5,N
1587328735.1,286047002.2,N
1587328755.9,286047001.4,N
1587328775.7,286046998.4,N
1587328795.5,286047000.7,N
1587328815.4,286046999.3,N
1587328835.2,286046999.5,N
1587328855.0,286046997.3,N
1587328855.9,286046997.3,N
1587328875.8,286046997.1,N
1587328895.6,286046995.5,N
1587328915.5,286046997.6,N
1587328935.3,286046999.2,N
1587328955.1,286046998.8,N
1587328975.9,286047000.2,N
1587328995.7,286047000.2,N
1587329015.5,286047000.3,N
1587329035.4,286046999.9,N
1587329055.2,286046999.8,N
1587329075.1,286047000.7,N
1587329076.0,286047000.7,N
1587329095.8,286047001.6,N
1587329115.6,286047002.2,N
1587329135.5,286046999.8,N
1587329155.3,286046999.9,N
1587329175.2,286047001.7,N
1587329195.9,286047000.3,N
1587329215.7,286046999.2,N
1587329235.6,286046996.5,N
1587329255.4,286047000.5,N
1587329275.2,286047001.7,N
1587329295.1,286047002.7,N
1587329296.0,286047002.7,N
1587329315.8,286046999.7,N
1587329335.7,286047002.7,N
1587329355.5,286047000.4,N
1587329375.3,286046996.6,N
1587329395.2,286046999.2,N
1587329415.0,286046996.6,N
1587329415.9,286046996.6,N
1587329435.8,286046999.4,N
1587329455.6,286046997.3,N
1587329475.4,286046997.3,N
1587329495.3,286046997.8,N
1587329515.1,286046997.3,N
1587329535.9,286046999.1,N
1587329555.7,286047001.2,N
1587329575.5,286047000.7,N
1587329595.4,286047000.0,N
1587329615.2,286046998.1,N
1587329635.0,286046999.1,N
1587329635.9,286046999.1,N
1587329655.8,286046997.5,N
1587329675.6,286046998.0,N
1587329695.5,286046997.3,N
1587329715.3,286046999.4,N
1587329735.1,286047000.9,N
1587329755.9,286047000.6,N
1587329775.7,286047000.0,N
1587329795.5,286046998.9,N
1587329815.4,286047000.5,N
1587329835.2,286047000.6,N
1587329855.1,286046998.8,N
1587329856.0,286046998.8,N
1587329875.8,286047001.2,N
1587329895.6,286046998.7,N
1587329915.5,286047001.0,N
1587329935.3,286047001.0,N
1587329955.2,286047001.5,N
1587329975.9,286047002.5,N
1587329995.7,286046999.7,N
